Погода в Маалот-Таршиха

Израиль     33°00′55″N   35°16′36″E
темп.,
°C
ветер,
м/с
пор.,
м/с
влажн.,
%
обл.,
%
осадки,
мм/ч
давл.,
гПа
погр.,
м
29 ноября, пн
пн2923:00+18св1157100 0.0 102011
02:00+18св1154100 0.0 102011
05:00+18в225091 0.0 102011
08:00+21вюв23406 0.0 102068
11:00+26вюв342552 0.0 1020509
14:00+26вюв3425100 0.0 1018480
17:00+22в443263 0.0 101849
20:00+22вюв583078 0.0 1018107
30 ноября, вт
вт3023:00+21вюв71230100 0.0 1017206
02:00+20в7113296 0.0 1016142
05:00+20в5532100 0.0 101655
08:00+21вюв5731100 0.0 1016131
11:00+26ю51021100 0.0 1015716
14:00+23юз3543100 0.0 1014478
17:00+18з2384100 0.0 101562
20:00+18зсз3594100 0.1 1016148
1 декабря, ср
ср123:00+17зсз4683100 0.2 1016601
02:00+17з4771100 0.3 1016891
05:00+16з5985100 0.4 1015701
08:00+17з6107279 0.9 10151155
11:00+16зсз8107799 2.1 1015973
14:00+15зсз797351 3.7 10141024
17:00+14сз597265 0.4 1015341
20:00+14зсз5970100 1.2 1016319
2 декабря, чт
чт223:00+14зсз596858 0.3 1016392
02:00+14сз596060 0.4 1017364
05:00+14сз486055 0.0 1017251
08:00+15сз34591 0.0 1019944
11:00+17сз44490 0.0 10191427
14:00+17сз44490 0.0 10181233
17:00+13с22620 0.0 101920
20:00+12всв22650 0.0 102116
3 декабря, пт
пт323:00+12в116429 0.0 102111
02:00+12в226398 0.0 102111
05:00+11в22635 0.0 102014
08:00+14в23547 0.0 1021114
11:00+18вюв343940 0.0 1020915
14:00+19вюв1334100 0.0 10181133
17:00+15ссв235895 0.0 101958
20:00+15в334699 0.0 101833